Franklin, PA

12:51 AM EST on December 09, 2019 (GMT -0500)
Venango Regional

Weather History for KFKL - May, 2019

Change the Weather History Date:

Thursday, May 16, 2019

  Actual Average Record
Temperature  
Mean Temperature 56 °F -  
Max Temperature 70 °F 70 °F 90 °F (1962)
Min Temperature 42 °F 44 °F 29 °F (1934)
Degree Days  
Heating Degree Days 9    
Growing Degree Days 6 (Base 50)    
Moisture  
Dew Point 46 °F    
Average Humidity 79    
Maximum Humidity 100    
Minimum Humidity 39    
Precipitation  
Precipitation 0.01 in - - ()
Sea Level Pressure  
Sea Level Pressure 29.91 in    
Wind  
Wind Speed 4 mph (WSW)    
Max Wind Speed 12 mph    
Max Gust Speed 16 mph    
Visibility 6 miles    
Events Fog    
Averages and records for this station are not official NWS values.
T = Trace of Precipitation, MM = Missing Value Source: NWS Daily Summary

Daily Weather History Graph

Daily Weather History Graph

Search for Another Location

Airport or City:

Astronomy

May. 16, 2019 Rise Set
Actual Time 5:59 AM EDT 8:32 PM EDT
Civil Twilight 5:28 AM EDT 9:04 PM EDT
Nautical Twilight 4:49 AM EDT 9:43 PM EDT
Astronomical Twilight 4:04 AM EDT 10:27 PM EDT
Moon 6:07 PM EDT (5/16) 4:59 AM EDT (5/16)
Length of Visible Light 15h 35m
Length of Day
14h 32m
Waxing Gibbous, 94% of the Moon is Illuminated
May 16
Waxing Gibbous
May 18
Full
May 26
Last Quarter
Jun 3
New
Jun 10
First Quarter

Hourly Weather History & Observations

Time (EDT) Temp. Windchill Dew Point Humidity Pressure Visibility Wind Dir Wind Speed Gust Speed Precip Events Conditions
12:56 AM 48.0 °F - 46.0 °F 93% 29.91 in 10.0 mi SW 6.9 mph - 0.01 in   Mostly Cloudy
2:56 AM 48.9 °F - 46.9 °F 93% 29.90 in 10.0 mi North 3.5 mph - 0.00 in   Overcast
3:56 AM 46.9 °F - 46.0 °F 97% 29.89 in 10.0 mi Calm Calm - N/A   Overcast
4:45 AM 44.6 °F 43.1 °F 44.6 °F 100% 29.89 in 1.5 mi SSW 3.5 mph - N/A   Clear
4:48 AM 44.6 °F - 44.6 °F 100% 29.89 in 0.8 mi Calm Calm - N/A   Clear
4:56 AM 46.0 °F - 45.0 °F 96% 29.90 in 1.2 mi Calm Calm - N/A   Clear
5:01 AM 44.6 °F 43.1 °F 44.6 °F 100% 29.89 in 0.8 mi SSW 3.5 mph - N/A   Clear
5:12 AM 44.6 °F 42.2 °F 44.6 °F 100% 29.89 in 1.5 mi SSW 4.6 mph - N/A   Clear
5:17 AM 44.6 °F 42.2 °F 44.6 °F 100% 29.89 in 0.8 mi SSW 4.6 mph - N/A   Clear
5:32 AM 44.6 °F 43.1 °F 44.6 °F 100% 29.90 in 1.2 mi SW 3.5 mph - N/A   Clear
5:37 AM 42.8 °F 41.1 °F 42.8 °F 100% 29.90 in 0.8 mi SW 3.5 mph - N/A   Mist
5:41 AM 44.6 °F - 44.6 °F 100% 29.90 in 0.2 mi Calm Calm - N/A Fog Fog
5:56 AM 45.0 °F - 45.0 °F 100% 29.92 in 0.2 mi Calm Calm - N/A Fog Fog
6:11 AM 42.8 °F 41.1 °F 42.8 °F 100% 29.93 in 0.5 mi NNW 3.5 mph - N/A Fog Fog
6:18 AM 42.8 °F 41.1 °F 42.8 °F 100% 29.93 in 0.2 mi NNW 3.5 mph - N/A Fog Fog
6:42 AM 42.8 °F - 42.8 °F 100% 29.94 in 0.8 mi Calm Calm - N/A   Scattered Clouds
6:45 AM 44.6 °F - 42.8 °F 93% 29.94 in 1.2 mi Calm Calm - N/A   Scattered Clouds
6:48 AM 44.6 °F - 44.6 °F 100% 29.94 in 3.0 mi Calm Calm - N/A   Scattered Clouds
6:56 AM 45.0 °F 43.5 °F 44.1 °F 97% 29.95 in 5.0 mi WSW 3.5 mph - N/A   Partly Cloudy
7:03 AM 44.6 °F - 44.6 °F 100% 29.94 in 1.5 mi Calm Calm - N/A   Clear
7:17 AM 44.6 °F - 44.6 °F 100% 29.95 in 3.0 mi Calm Calm - N/A   Partly Cloudy
7:56 AM 51.1 °F - 48.9 °F 92% 29.96 in 10.0 mi Calm Calm - N/A   Clear
8:56 AM 55.0 °F - 48.0 °F 77% 29.96 in 10.0 mi Variable 4.6 mph - N/A   Clear
9:56 AM 59.0 °F - 48.9 °F 69% 29.96 in 10.0 mi West 4.6 mph - N/A   Clear
10:56 AM 62.1 °F - 48.9 °F 62% 29.96 in 10.0 mi Calm Calm - N/A   Clear
11:56 AM 64.9 °F - 46.9 °F 52% 29.96 in 10.0 mi West 9.2 mph - N/A   Scattered Clouds
12:05 PM 64.4 °F - 48.2 °F 56% 29.96 in 10.0 mi WNW 6.9 mph - N/A   Partly Cloudy
12:56 PM 66.9 °F - 46.9 °F 49% 29.94 in 10.0 mi West 11.5 mph 16.1 mph N/A   Partly Cloudy
1:56 PM 68.0 °F - 48.0 °F 49% 29.94 in 10.0 mi WNW 9.2 mph - N/A   Mostly Cloudy
2:56 PM 68.0 °F - 46.0 °F 45% 29.92 in 10.0 mi WNW 9.2 mph - N/A   Scattered Clouds
3:56 PM 69.1 °F - 46.9 °F 45% 29.90 in 10.0 mi SW 8.1 mph - N/A   Mostly Cloudy
4:56 PM 70.0 °F - 45.0 °F 41% 29.87 in 10.0 mi WSW 8.1 mph - N/A   Partly Cloudy
5:56 PM 69.1 °F - 43.0 °F 39% 29.86 in 10.0 mi SW 8.1 mph - N/A   Clear
6:56 PM 68.0 °F - 44.1 °F 42% 29.86 in 10.0 mi SSW 6.9 mph - N/A   Partly Cloudy
7:56 PM 64.0 °F - 46.9 °F 54% 29.84 in 10.0 mi SSW 8.1 mph - N/A   Clear
8:56 PM 64.0 °F - 46.9 °F 54% 29.84 in 10.0 mi South 6.9 mph - N/A   Mostly Cloudy
9:56 PM 64.0 °F - 48.0 °F 56% 29.85 in 10.0 mi SSW 11.5 mph - N/A   Overcast
10:56 PM 64.0 °F - 48.9 °F 58% 29.83 in 10.0 mi SSW 10.4 mph - N/A   Mostly Cloudy
11:56 PM 61.0 °F - 50.0 °F 67% 29.81 in 10.0 mi SSW 8.1 mph - N/A   Clear